Location: Pasadena, ca
(34.1243°N, 118.1037°W)
Time: 18:23:55
(UTC-08:00)

Tiangong 2 - Pass Details

Date: 11 October 2017
Orbit: 386 x 390 km, 42.8° (Epoch: 09 December)

Event Time Altitude Azimuth Distance (km) Brightness Sun altitude
Exits shadow 06:17:05 - 302° (WNW) 1,477 3.5 -8.6°
Reaches altitude 10° 06:17:16 10° 304° (WNW) 1,422 3.4 -8.5°
Maximum altitude 06:19:38 19° 352° (N) 1,012 3.1 -8.1°
Drops below altitude 10° 06:22:01 10° 40° (NE) 1,426 4.5 -7.6°
Sets 06:24:31 0° 59° (ENE) 2,283 6.0 -7.1°
